IBE07BV LEMD-EGLL

Flight info

Callsign IBE07BV
Flight time N/A
Altitude 38000
Route SIE6L SIE N858 DGO N867 NENEM DCT DIDIG UP87 ROXOG ROXOG1H
Aircraft A346/H-SDE2E3FGHIJ3J4J5M1RWXY/LB1D1

Departure

Time 2026-05-06 14:58
Airport Adolfo Suárez Madrid–Barajas Airport (LEMD)

Arrival

Time N/A
Airport London Heathrow Airport (EGLL)
Time Latitude Longitude Altitude Speed Heading
2026-05-06 14:41 40.49285 -3.56879 2008 ft 0 kts 89°
2026-05-06 14:45 40.49285 -3.56909 1984 ft 4 kts 89°
2026-05-06 14:45 40.49285 -3.56944 1985 ft 4 kts 89°
2026-05-06 14:45 40.49286 -3.56972 1986 ft 4 kts 104°
2026-05-06 14:45 40.49294 -3.56993 1986 ft 4 kts 141°
2026-05-06 14:46 40.49311 -3.57002 1985 ft 4 kts 175°
2026-05-06 14:46 40.49337 -3.57002 1985 ft 4 kts 181°
2026-05-06 14:46 40.49347 -3.57002 1986 ft 0 kts 180°
2026-05-06 14:50 40.49345 -3.57002 1986 ft 2 kts 187°
2026-05-06 14:50 40.49286 -3.57081 1990 ft 9 kts 226°
2026-05-06 14:51 40.49225 -3.57117 1990 ft 22 kts 188°
2026-05-06 14:51 40.49134 -3.57127 1989 ft 8 kts 181°
2026-05-06 14:51 40.49094 -3.57136 1992 ft 3 kts 197°
2026-05-06 14:51 40.49088 -3.57141 1992 ft 0 kts 221°
2026-05-06 14:53 40.49071 -3.57179 1993 ft 9 kts 247°
2026-05-06 14:53 40.49060 -3.57258 1994 ft 9 kts 275°
2026-05-06 14:54 40.49084 -3.57326 1996 ft 3 kts 304°
2026-05-06 14:54 40.49090 -3.57339 1995 ft 0 kts 304°
2026-05-06 14:55 40.49091 -3.57341 1995 ft 3 kts 305°
2026-05-06 14:55 40.49130 -3.57395 1995 ft 10 kts 314°
2026-05-06 14:56 40.49207 -3.57441 1994 ft 20 kts 346°
2026-05-06 14:56 40.49280 -3.57449 1993 ft 0 kts
2026-05-06 14:57 40.49283 -3.57449 1993 ft 0 kts
2026-05-06 14:57 40.49442 -3.57457 1992 ft 57 kts 358°
2026-05-06 14:58 40.50074 -3.57468 1997 ft 122 kts 359°
2026-05-06 14:58 40.51117 -3.57488 2006 ft 175 kts 359°
2026-05-06 14:58 40.52444 -3.57501 2418 ft 190 kts 358°
2026-05-06 14:58 40.53752 -3.57511 3206 ft 189 kts 359°
2026-05-06 14:59 40.55076 -3.57582 3934 ft 192 kts 345°
2026-05-06 14:59 40.56190 -3.58485 4493 ft 193 kts 304°
2026-05-06 14:59 40.56699 -3.60112 5081 ft 194 kts 288°
2026-05-06 14:59 40.57413 -3.61634 5572 ft 204 kts 319°
2026-05-06 15:00 40.58634 -3.62725 5931 ft 220 kts 327°
2026-05-06 15:00 40.59968 -3.63836 6338 ft 232 kts 326°
2026-05-06 15:00 40.61299 -3.65069 6956 ft 234 kts 323°
2026-05-06 15:00 40.62628 -3.66404 7515 ft 243 kts 321°
2026-05-06 15:01 40.64087 -3.67564 8169 ft 248 kts 344°
2026-05-06 15:01 40.65813 -3.67740 8836 ft 256 kts
2026-05-06 15:01 40.67614 -3.67477 9312 ft 272 kts
2026-05-06 15:01 40.69549 -3.67157 9856 ft 287 kts
2026-05-06 15:02 40.71561 -3.66833 10531 ft 296 kts
2026-05-06 15:02 40.73666 -3.66509 11006 ft 313 kts
2026-05-06 15:02 40.75894 -3.66175 11449 ft 332 kts
2026-05-06 15:02 40.78258 -3.65827 11893 ft 351 kts
2026-05-06 15:03 40.80745 -3.65464 12323 ft 369 kts
2026-05-06 15:03 40.83363 -3.65084 12765 ft 386 kts
2026-05-06 15:03 40.86071 -3.64691 13493 ft 394 kts
2026-05-06 15:03 40.88809 -3.64292 14355 ft 397 kts
2026-05-06 15:04 40.91563 -3.63888 15188 ft 400 kts
2026-05-06 15:04 40.94343 -3.63484 15957 ft 405 kts
2026-05-06 15:04 40.97157 -3.63074 16741 ft 408 kts
2026-05-06 15:04 40.99997 -3.62661 17531 ft 412 kts
2026-05-06 15:05 41.02861 -3.62243 18289 ft 417 kts
2026-05-06 15:05 41.05719 -3.61827 18922 ft 421 kts
2026-05-06 15:05 41.08647 -3.61401 19593 ft 425 kts
2026-05-06 15:05 41.11600 -3.60971 20289 ft 428 kts
2026-05-06 15:06 41.14608 -3.60532 20990 ft 432 kts
2026-05-06 15:06 41.17565 -3.59983 21610 ft 437 kts
2026-05-06 15:06 41.20551 -3.59066 22226 ft 444 kts 13°
2026-05-06 15:06 41.23499 -3.57768 22847 ft 450 kts 18°
2026-05-06 15:07 41.26381 -3.56081 23449 ft 456 kts 24°
2026-05-06 15:07 41.29169 -3.54015 23952 ft 462 kts 28°
2026-05-06 15:07 41.31950 -3.51833 24501 ft 465 kts 27°
2026-05-06 15:07 41.34833 -3.49868 25053 ft 466 kts 22°
2026-05-06 15:08 41.37804 -3.48115 25568 ft 469 kts 21°
2026-05-06 15:08 41.40823 -3.46421 26069 ft 472 kts 20°
2026-05-06 15:08 41.43870 -3.44748 26559 ft 476 kts 19°
2026-05-06 15:08 41.46944 -3.43067 27048 ft 480 kts 19°
2026-05-06 15:09 41.50042 -3.41368 27544 ft 483 kts 19°
2026-05-06 15:09 41.53164 -3.39654 28056 ft 486 kts 19°
2026-05-06 15:09 41.56291 -3.37931 28708 ft 485 kts 19°
2026-05-06 15:09 41.59403 -3.36208 29526 ft 482 kts 19°
2026-05-06 15:10 41.62499 -3.34493 30222 ft 480 kts 19°
2026-05-06 15:10 41.65581 -3.32786 30797 ft 479 kts 19°
2026-05-06 15:10 41.68659 -3.31083 31351 ft 479 kts 19°
2026-05-06 15:10 41.71741 -3.29376 31901 ft 479 kts 19°
2026-05-06 15:11 41.74816 -3.27672 32483 ft 478 kts 19°
2026-05-06 15:11 41.77879 -3.25971 33071 ft 476 kts 19°
2026-05-06 15:11 41.80941 -3.24268 33647 ft 475 kts 19°
2026-05-06 15:11 41.83997 -3.22567 34146 ft 475 kts 19°
2026-05-06 15:12 41.87047 -3.20869 34572 ft 475 kts 19°
2026-05-06 15:12 41.90109 -3.19162 34981 ft 475 kts 19°
2026-05-06 15:12 41.93163 -3.17458 35367 ft 476 kts 19°
2026-05-06 15:12 41.96222 -3.15749 35772 ft 476 kts 19°
2026-05-06 15:13 41.99237 -3.14062 36158 ft 476 kts 19°
2026-05-06 15:13 42.01621 -3.12727 36436 ft 476 kts 19°